Date String (YYYY-MM-DD hh:mm:ss) UTC,Instrument flags,absolute air pressure of the measurement (hPa),sample flow rate (lpm),inlet stack bypass flow (lpm),air temperature of the measurement (°C),ambient temperature measured by the external sensor (°C),aerosol sample conditioner tube jacket temperature (°C),OPC LED temperature (°C),internal box temperature (°C),relative humidity of the measurement (%),span deviation,mass concentration of particles derived from Lorenz-Mie calculation of OPC scattering (μg/m³),mass concentration of particles derived from Lorenz-Mie calculation of OPC scattering (μg/m³),mass concentration of particles derived from Lorenz-Mie calculation of OPC scattering (μg/m³)
DateTimeUTC,F1_M11,P_M11,Q1_M11,Q2_M11,T1_M11,T2_M11,T3_M11,T4_M11,T5_M11,U1_M11,ZSPAN_M11,X0_M11,X2_M11,X1_M11
2023-10-25 11:00:00,SystemResetWarning,0827.3,4.99,000.00,028.8,027.2,000.0,037.2,030.4,18.9,0000.0,0022.85,0007.04,0004.90
2023-10-25 11:01:00,SystemResetWarning,0827.3,5.01,000.00,028.8,027.2,000.0,037.2,030.4,18.9,0000.0,0023.14,0007.18,0005.01
2023-10-25 11:02:00,SystemResetWarning,0827.2,5.01,000.00,028.8,027.2,000.0,037.2,030.4,18.9,0000.0,0022.88,0007.33,0005.16
2023-10-25 11:03:00,SystemResetWarning,0827.2,5.00,000.00,028.8,027.2,000.0,037.2,030.4,18.9,0000.0,0023.23,0007.53,0005.31
2023-10-25 11:04:00,SystemResetWarning,0827.3,5.01,000.00,028.7,027.2,000.0,037.2,030.4,18.9,0002.3,0024.88,0007.66,0005.45
2023-10-25 11:05:00,SystemResetWarning,0827.3,5.00,000.00,028.7,027.2,000.0,037.2,030.4,18.9,0003.7,0024.28,0007.84,0005.58
2023-10-25 11:06:00,SystemResetWarning,0827.3,5.00,000.00,028.7,027.2,000.0,037.2,030.4,19.0,0002.9,0024.65,0007.98,0005.69
2023-10-25 11:07:00,SystemResetWarning,0827.3,5.00,000.00,028.7,027.2,000.0,037.2,030.4,19.0,0001.8,0025.77,0008.20,0005.82
2023-10-25 11:08:00,SystemResetWarning,0827.3,5.01,000.00,028.7,027.1,000.0,037.2,030.4,19.0,0001.7,0026.00,0008.32,0005.93
2023-10-25 11:09:00,SystemResetWarning,0827.3,5.00,000.00,028.7,027.1,000.0,037.2,030.3,19.0,0001.5,0026.24,0008.46,0006.01
2023-10-25 11:10:00,SystemResetWarning,0827.3,5.00,000.00,028.7,027.1,000.0,037.2,030.3,19.0,0001.3,0025.47,0008.66,0006.09
2023-10-25 11:11:00,SystemResetWarning,0827.3,5.00,000.00,028.7,027.1,000.0,037.2,030.3,19.0,0001.3,0025.49,0008.81,0006.15
2023-10-25 11:12:00,SystemResetWarning,0827.2,5.00,000.00,028.7,027.1,000.0,037.2,030.3,19.0,0001.2,0026.12,0008.81,0006.18
2023-10-25 11:13:00,SystemResetWarning,0827.2,5.00,000.00,028.7,027.1,000.0,037.2,030.3,19.0,0000.3,0025.59,0008.86,0006.20
2023-10-25 11:14:00,SystemResetWarning,0827.2,5.00,000.00,028.7,027.0,000.0,037.2,030.3,18.9,0000.0,0025.19,0008.87,0006.19
2023-10-25 11:15:00,SystemResetWarning,0827.2,5.00,000.00,028.7,027.0,000.0,037.2,030.2,18.9,0000.0,0023.88,0008.85,0006.18
2023-10-25 11:16:00,SystemResetWarning,0827.2,5.00,000.00,028.7,027.0,000.0,037.2,030.2,19.0,0000.0,0023.69,0008.78,0006.16
2023-10-25 11:17:00,SystemResetWarning,0827.1,5.00,000.00,028.7,027.0,000.0,037.2,030.2,19.0,0000.0,0023.99,0008.78,0006.13
2023-10-25 11:18:00,SystemResetWarning,0827.1,5.00,000.00,028.6,027.0,000.0,037.1,030.2,19.0,0000.0,0025.15,0008.72,0006.08
2023-10-25 11:19:00,SystemResetWarning,0827.1,5.00,000.00,028.6,027.0,000.0,037.1,030.2,19.0,0000.0,0025.06,0008.69,0006.03
2023-10-25 11:20:00,SystemResetWarning,0827.2,5.00,000.00,028.6,027.0,000.0,037.1,030.2,19.0,0000.0,0024.63,0008.65,0006.01
2023-10-25 11:21:00,SystemResetWarning,0827.1,5.00,000.00,028.6,027.0,000.0,037.1,030.2,19.0,0000.0,0024.87,0008.55,0006.00
2023-10-25 11:22:00,SystemResetWarning,0827.2,5.00,000.00,028.6,026.9,000.0,037.1,030.2,19.2,0000.0,0025.31,0008.45,0005.98
2023-10-25 11:23:00,SystemResetWarning,0827.1,5.00,000.00,028.6,026.9,000.0,037.1,030.2,19.2,0000.0,0024.86,0008.33,0005.93
2023-10-25 11:24:00,SystemResetWarning,0827.1,5.00,000.00,028.6,026.9,000.0,037.1,030.2,19.2,0000.0,0025.34,0008.26,0005.87
2023-10-25 11:25:00,SystemResetWarning,0827.2,5.00,000.00,028.6,026.9,000.0,037.1,030.2,19.2,0000.0,0027.06,0008.17,0005.82
2023-10-25 11:26:00,SystemResetWarning,0827.1,4.99,000.00,028.6,026.9,000.0,037.1,030.2,19.1,0000.0,0027.78,0008.16,0005.79
2023-10-25 11:27:00,SystemResetWarning,0827.1,5.00,000.00,028.6,026.9,000.0,037.1,030.2,19.3,0000.0,0028.33,0008.19,0005.78
2023-10-25 11:28:00,SystemResetWarning,0827.1,5.00,000.00,028.6,026.9,000.0,037.1,030.2,19.3,0000.0,0027.18,0008.13,0005.78
2023-10-25 11:29:00,SystemResetWarning,0827.0,5.00,000.00,028.6,026.9,000.0,037.1,030.2,19.2,0000.0,0025.28,0008.10,0005.78
2023-10-25 11:30:00,SystemResetWarning,0827.1,5.00,000.00,028.6,026.9,000.0,037.1,030.2,19.2,0000.0,0025.30,0008.10,0005.78
2023-10-25 11:31:00,SystemResetWarning,0827.1,5.00,000.00,028.6,026.9,000.0,037.1,030.2,19.2,0000.0,0025.42,0008.11,0005.78
2023-10-25 11:32:00,SystemResetWarning,0827.1,5.00,000.00,028.6,026.9,000.0,037.1,030.2,19.1,0000.0,0026.16,0008.12,0005.78
2023-10-25 11:33:00,SystemResetWarning,0827.1,5.00,000.00,028.6,026.9,000.0,037.1,030.2,19.1,0000.0,0025.87,0008.15,0005.79
2023-10-25 11:34:00,SystemResetWarning,0827.1,5.01,000.00,028.6,026.9,000.0,037.1,030.2,19.1,0000.0,0026.33,0008.22,0005.81
2023-10-25 11:35:00,SystemResetWarning,0827.1,5.01,000.00,028.6,026.9,000.0,037.0,030.2,19.1,0000.0,0026.26,0008.22,0005.84
2023-10-25 11:36:00,SystemResetWarning,0827.2,5.01,000.00,028.6,026.9,000.0,037.0,030.2,19.1,0000.0,0024.75,0008.23,0005.86
2023-10-25 11:37:00,SystemResetWarning,0827.1,5.00,000.00,028.6,026.9,000.0,037.0,030.2,18.9,0000.0,0024.57,0008.28,0005.86
2023-10-25 11:38:00,SystemResetWarning,0827.1,5.00,000.00,028.6,026.9,000.0,037.0,030.2,19.0,0000.0,0024.92,0008.33,0005.86
2023-10-25 11:39:00,SystemResetWarning,0827.1,5.00,000.00,028.6,026.9,000.0,037.0,030.2,19.1,0000.0,0026.01,0008.50,0005.86
2023-10-25 11:40:00,SystemResetWarning,0827.1,5.00,000.00,028.6,026.9,000.0,037.0,030.2,19.6,0000.0,0027.28,0008.58,0005.86
2023-10-25 11:41:00,SystemResetWarning,0827.0,5.00,000.00,028.5,026.9,000.0,037.0,030.2,19.5,0000.5,0027.25,0008.66,0005.90
2023-10-25 11:42:00,SystemResetWarning,0827.0,5.00,000.00,028.5,026.9,000.0,037.0,030.2,19.3,0000.0,0027.87,0008.73,0005.94
2023-10-25 11:43:00,SystemResetWarning,0827.0,5.00,000.00,028.5,026.9,000.0,037.0,030.1,19.1,0000.0,0026.60,0008.76,0005.97
2023-10-25 11:44:00,SystemResetWarning,0827.0,5.00,000.00,028.5,026.9,000.0,037.0,030.2,19.2,0000.0,0025.72,0008.80,0005.98
2023-10-25 11:45:00,SystemResetWarning,0827.0,5.00,000.00,028.5,026.9,000.0,037.0,030.2,19.5,0000.6,0025.48,0008.87,0005.99
2023-10-25 11:46:00,SystemResetWarning,0827.0,5.00,000.00,028.5,026.9,000.0,037.0,030.2,19.5,0000.9,0025.55,0008.87,0006.01
2023-10-25 11:47:00,SystemResetWarning,0827.0,5.01,000.00,028.5,026.9,000.0,037.0,030.2,19.4,0002.4,0026.63,0008.95,0006.03
2023-10-25 11:48:00,SystemResetWarning,0827.0,5.00,000.00,028.5,026.9,000.0,037.0,030.2,19.2,0000.9,0028.45,0008.98,0006.06
2023-10-25 11:49:00,SystemResetWarning,0827.1,4.99,000.00,028.5,026.9,000.0,037.0,030.2,19.1,0001.0,0027.74,0009.01,0006.07
2023-10-25 11:50:00,SystemResetWarning,0827.0,5.00,000.00,028.5,026.9,000.0,037.0,030.2,19.1,0001.1,0027.72,0008.98,0006.09
2023-10-25 11:51:00,SystemResetWarning,0827.0,4.99,000.00,028.5,027.0,000.0,037.0,030.2,19.0,0001.3,0027.37,0008.91,0006.09
2023-10-25 11:52:00,SystemResetWarning,0827.0,5.00,000.00,028.5,027.0,000.0,037.0,030.2,19.0,0000.0,0027.45,0008.94,0006.10
2023-10-25 11:53:00,SystemResetWarning,0827.1,5.00,000.00,028.5,027.0,000.0,037.0,030.2,18.8,0000.0,0026.73,0008.88,0006.09
2023-10-25 11:54:00,SystemResetWarning,0827.0,5.00,000.00,028.5,027.0,000.0,037.0,030.2,18.7,0000.0,0027.17,0008.85,0006.07
2023-10-25 11:55:00,SystemResetWarning,0827.0,5.00,000.00,028.5,027.0,000.0,037.0,030.2,18.6,-000.0,0027.98,0008.87,0006.05
2023-10-25 11:56:00,SystemResetWarning,0827.0,5.00,000.00,028.5,027.0,000.0,037.0,030.2,18.5,-000.2,0027.27,0008.85,0006.06
2023-10-25 11:57:00,SystemResetWarning,0827.1,5.00,000.00,028.5,027.0,000.0,037.0,030.2,18.5,0000.0,0028.40,0008.91,0006.06
2023-10-25 11:58:00,SystemResetWarning,0827.1,5.00,000.00,028.5,027.0,000.0,037.0,030.2,18.5,0000.0,0028.74,0008.96,0006.07
2023-10-25 11:59:00,SystemResetWarning,0827.1,5.01,000.00,028.5,027.0,000.0,037.0,030.2,18.5,0000.0,0027.04,0008.94,0006.10
